Regional Weather Roundup
Issued by NWS

Home | Current Version | Previous Version | Text Only | Print | Product List | Glossary Off
Versions: 1 2 3 4 5 6 7 8 9 10 11 12 13 14 15 16 17 18 19 20 21 22 23 24 25 26 27 28 29 30 31 32 33 34 35 36 37 38 39 40 41 42 43 44 45 46 47 48 49 50

951
ASUS43 KOAX 241702
RWRNE

WEATHER ROUNDUP FOR NEBRASKA
NATIONAL WEATHER SERVICE OMAHA NE
1100 AM CST SAT FEB 24 2018

NOTES: SATELLITE DATA IS BEING USED TO AUGMENT CLOUD COVER ABOVE
       12000 FEET.
       "FAIR" INDICATES FEW OR NO CLOUDS BELOW 12,000 FEET WITH NO
       SIGNIFICANT WEATHER AND/OR OBSTRUCTIONS TO VISIBILITY.


NEZ001>004-019>022-054>056-241800-
NEBRASKA PANHANDLE

CITY           SKY/WX    TMP DP  RH WIND       PRES   REMARKS
SCOTTSBLUFF    SUNNY     26   9  48 W30G39    29.75F WCI  10
ALLIANCE       SUNNY     24  14  65 W18       29.72S WCI  10
CHADRON        SUNNY     19   9  65 NW12      29.77S WCI   7
GORDON         FAIR      26  11  53 W21G29    29.69S HAZE    WCI  12
KIMBALL        SUNNY     22  10  59 NW24G33   29.75F HAZE    WCI   6
SIDNEY         SUNNY     29   6  38 NW33G45   29.75F WCI  13
$$

NEZ057>060-069>072-079>082-241800-
SOUTHWEST NEBRASKA

CITY           SKY/WX    TMP DP  RH WIND       PRES   REMARKS
NORTH PLATTE   LGT SNOW  25  21  85 SW8       29.77F VSB 3/4 WCI  16
IMPERIAL       PTSUNNY   29  23  78 W9        29.76F WCI  20
LEXINGTON      LGT SNOW  27  25  91 SW5       29.79F WCI  22
MCCOOK         SNOW      26  25  96 SW6       29.80F VSB 1/2 WCI  19
OGALLALA       MOSUNNY   30  24  76 W8        29.75F WCI  23
$$

NEZ005>010-023>029-035>040-094-241800-
NORTH CENTRAL NEBRASKA

CITY           SKY/WX    TMP DP  RH WIND       PRES   REMARKS
VALENTINE      LGT SNOW  23  18  81 S7        29.73F WCI  15
AINSWORTH      LGT SNOW  19  18  97 S10       29.75F WCI   7
BROKEN BOW     CLOUDY    24  21  88 SW6       29.77F WCI  17
O`NEILL        LGT SNOW  18  18  98 CALM      29.81F
ORD            LGT SNOW  20  18  92 SE5       29.80F FOG     WCI  13
THEDFORD         N/A     24  19  84 SW8       29.75F WCI  14
$$

NEZ041-046>049-061>064-073>077-083>087-241800-
SOUTH CENTRAL NEBRASKA

CITY           SKY/WX    TMP DP  RH WIND       PRES   REMARKS
GRAND ISLAND   CLOUDY    21  18  88 NE5       29.83F FOG     WCI  15
AURORA         CLOUDY    21  20  94 N3        29.83F
HASTINGS       CLOUDY    22  18  85 E5        29.82F WCI  16
HEBRON         LGT SNOW  28  26  94 N6        29.86R VSB 3/4 WCI  21
HOLDREGE       CLOUDY    24  24 100 CALM      29.79F FOG
KEARNEY        CLOUDY    27  24  89 CALM      29.81F
YORK           PTSUNNY   23  23 100 CALM      29.84F
$$

NEZ011>018-030>034-042>045-241800-
NORTHEAST NEBRASKA

CITY           SKY/WX    TMP DP  RH WIND       PRES   REMARKS
NORFOLK        LGT SNOW  22  20  92 VRB6      29.82F FOG     WCI  14
ALBION         CLOUDY    21  19  93 CALM      29.83F FOG
BLAIR          MIX PCPN  28  27  96 N3        29.84F
COLUMBUS       CLOUDY    25  21  85 N5        29.86F FOG     WCI  19
FREMONT        MIX PCPN  26  26  96 NW5       29.86F VSB 1   WCI  21
TEKAMAH        LGT SNOW  26  23  88 N7        29.88F VSB 1   WCI  18
WAYNE          CLOUDY    22  21  96 NE7       29.85F WCI  14
$$

NEZ050>053-065>068-078-088>093-241800-
SOUTHEAST NEBRASKA

CITY           SKY/WX    TMP DP  RH WIND       PRES   REMARKS
LINCOLN        CLOUDY    27  25  92 N9        29.86F FOG     WCI  18
OMAHA EPPLEY   FRZ DRZL  28  26  92 NW7       29.85F VSB 1   WCI  21
BEATRICE       CLOUDY    30  29  97 N5        29.84R FOG     WCI  25
FALLS CITY     CLOUDY    31  30  96 NE8       29.80F FOG     WCI  23
NEBRASKA CITY  CLOUDY    29  29 100 NE3       29.82F FOG
PLATTSMOUTH    CLOUDY    28  28 100 CALM      29.84F FOG
$$

NEZ044-045-051>053-067-241800-
OMAHA AREA

CITY           SKY/WX    TMP DP  RH WIND       PRES   REMARKS
OMAHA EPPLEY   FRZ DRZL  28  26  92 NW7       29.85F VSB 1   WCI  21
BLAIR          MIX PCPN  28  27  96 N3        29.84F
FREMONT        MIX PCPN  26  26  96 NW5       29.86F VSB 1   WCI  21
MILLARD        MIX PCPN  29  27  93 CALM      29.86F
OFFUTT AFB     FRZ DRZL  28  28  98 CALM      29.85F FOG
PLATTSMOUTH    CLOUDY    28  28 100 CALM      29.84F FOG
WAHOO          LGT SNOW  26  25  94 N7        29.85F WCI  19
$$




USA.gov is the U.S. government's official web portal to all federal, state and local government web resources and services.